Printer-friendly version

IAU Minor Planet Center

Minor Planet Center

MPEC 2006-H19 : 2006 HV5

The following Minor Planet Electronic Circular may be linked-to from your own Web pages, but must not otherwise be redistributed electronically.


Read MPEC 2006-H18 Read MPEC 2006-H20


M.P.E.C. 2006-H19                                Issued 2006 Apr. 21, 17:19 UT

     The Minor Planet Electronic Circulars contain information on unusual
         minor planets and routine data on comets.  They are published
   on behalf of Commission 20 of the International Astronomical Union by the
          Minor Planet Center, Smithsonian Astrophysical Observatory,
                          Cambridge, MA 02138, U.S.A.

                  Supported in part by the Brinson Foundation
                  Supported in part by the TABASGO Foundation
             Prepared using the Tamkin Foundation Computer Network

                              MPC@CFA.HARVARD.EDU
          URL http://cfa-www.harvard.edu/iau/mpc.html  ISSN 1523-6714

                                   2006 HV5

Observations:
     K06H05V* C2006 04 19.40518 19 22 40.08 +16 40 39.2          16.9   EH019704
     K06H05V  C2006 04 19.41688 19 22 51.12 +16 39 16.6          17.0   EH019704
     K06H05V  C2006 04 19.42838 19 23 02.05 +16 37 54.7          16.9   EH019704
     K06H05V  C2006 04 19.43955 19 23 12.66 +16 36 35.1          16.9   EH019704
     K06H05V  C2006 04 19.45072 19 23 23.25 +16 35 14.8          17.1   EH019704
     K06H05V  C2006 04 21.39808 20 04 54.12 +11 07 58.7          15.8 V EH019703
     K06H05V  C2006 04 21.39907 20 04 55.63 +11 07 45.4          15.6 V EH019703
     K06H05V  C2006 04 21.41341 20 05 16.48 +11 04 19.1          15.9 R EH019734
     K06H05V  C2006 04 21.41444 20 05 18.13 +11 04 05.2          16.0 R EH019734
     K06H05V  C2006 04 21.41597 20 05 20.54 +11 03 44.3          16.0 R EH019734
     K06H05V  C2006 04 21.41698 20 05 22.17 +11 03 30.5          15.8 R EH019734

Observer details:
703 Catalina Sky Survey.  Observer A. R. Gibbs.  Measurers E. C. Beshore,
    E. J. Christensen, G. J. Garradd, A. R. Gibbs, A. D. Grauer, R. E. Hill,
    R. A. Kowalski, S. M. Larson, R. H. McNaught.  0.68-m Schmidt + CCD.
704 Lincoln Laboratory ETS, New Mexico.  Observers M. Bezpalko, L. Manguso,
    D. Torres, R. Kracke, M. Blythe, H. Love, G. Spitz.  Measurers J. Stuart,
    J. Kommers.  1.0-m f/2.15 reflector + CCD.
734 Farpoint Observatory.  Observer G. Hug.  0.7-m reflector + CCD.

Orbital elements:
2006 HV5                                            PHA, Earth MOID = 0.0155 AU
Epoch 2006 Mar. 6.0 TT = JDT 2453800.5                  MPC
M 190.41793              (2000.0)            P               Q
n   1.26682711     Peri.  316.53424     +0.92814522     +0.19605616
a   0.8459106      Node    36.04982     +0.10872982     +0.67015415
e   0.3174772      Incl.   32.52361     -0.35598353     +0.71585990
P   0.78           H   19.2           G   0.15           U   8
Residuals in seconds of arc
060419 704  0.1+  0.2-    060419 704  0.2+  0.1+    060421 734  0.2+  0.1-
060419 704  0.5-  0.0     060421 703  0.6+  0.2+    060421 734  0.3-  0.1-
060419 704  0.0   0.1-    060421 703  0.6-  0.3+    060421 734  0.0   0.1-
060419 704  0.3+  0.2+    060421 734  0.1+  0.2-

Ephemeris:
2006 HV5                 a,e,i = 0.85, 0.32, 33                  q = 0.5774
Date    TT    R. A. (2000) Decl.     Delta      r     Elong.  Phase     V
2006 04 15    18 35.88   +21 51.0    0.112    1.027    99.2    74.7    17.1
2006 04 16    18 43.32   +21 06.5    0.102    1.023    98.4    76.0    16.9
2006 04 17    18 52.20   +20 10.8    0.0921   1.019    97.3    77.6    16.8
2006 04 18    19 02.97   +18 59.8    0.0825   1.016    95.8    79.5    16.6
2006 04 19    19 16.27   +17 27.2    0.0732   1.012    93.8    82.0    16.4
2006 04 20    19 33.01   +15 23.5    0.0642   1.008    91.1    85.2    16.2
2006 04 21    19 54.49   +12 34.0    0.0558   1.004    87.4    89.4    16.1
2006 04 22    20 22.52   +08 37.8    0.0481   1.000    82.3    95.0    16.0
2006 04 23    20 59.32   +03 09.6    0.0416   0.996    75.3   102.4    16.0
2006 04 24    21 46.81   -04 03.6    0.0371   0.991    66.4   111.7    16.3
2006 04 25    22 44.54   -12 22.7    0.0352   0.987    56.8   121.5    16.9

Timothy B. Spahr             (C) Copyright 2006 MPC           M.P.E.C. 2006-H19

Read MPEC 2006-H18 Read MPEC 2006-H20


Our Web policy. Index to the CBAT/MPC/ICQ pages.


Valid HTML 4.01!